| time (UTC) | temp F | wind direction | speed MPH | gust MPH | rain 1hr in | rain 24hr in | rain mn in | humidity % | barometer mb |
| 20260508085050 | 44 | 0 | 0.0 | 1.0 | 0.00 | 0.00 | 0.00 | 85 | 1014.3 |
| 20260508084547 | 44 | 0 | 0.0 | 1.0 | 0.00 | 0.00 | 0.00 | 87 | 1014.2 |
| 20260508084044 | 44 | 0 | 2.0 | 2.0 | 0.00 | 0.00 | 0.00 | 84 | 1014.5 |
| 20260508083541 | 44 | 123 | 3.0 | 3.0 | 0.00 | 0.00 | 0.00 | 86 | 1014.5 |
| 20260508083038 | 44 | 111 | 1.0 | 2.0 | 0.00 | 0.00 | 0.00 | 88 | 1014.4 |
| 20260508082534 | 44 | 74 | 0.0 | 0.0 | 0.00 | 0.00 | 0.00 | 86 | 1014.2 |
| 20260508082032 | 44 | 48 | 0.0 | 2.0 | 0.00 | 0.00 | 0.00 | 85 | 1014.2 |
| 20260508081529 | 43 | 90 | 0.0 | 2.0 | 0.00 | 0.00 | 0.00 | 86 | 1014.2 |
| 20260508081025 | 43 | 29 | 0.0 | 2.0 | 0.00 | 0.00 | 0.00 | 87 | 1014.6 |
| 20260508080523 | 43 | 5 | 0.0 | 1.0 | 0.00 | 0.00 | 0.00 | 88 | 1014.4 |
| 20260508080020 | 43 | 90 | 0.0 | 0.0 | 0.00 | 0.00 | 0.00 | 88 | 1014.4 |
| 20260508075516 | 43 | 95 | 2.0 | 2.0 | 0.00 | 0.00 | 0.00 | 88 | 1014.7 |
| 20260508075014 | 43 | 105 | 0.0 | 2.0 | 0.00 | 0.00 | 0.00 | 87 | 1014.6 |
| 20260508074512 | 43 | 90 | 2.0 | 2.0 | 0.00 | 0.00 | 0.00 | 87 | 1014.7 |
| 20260508074008 | 43 | 97 | 1.0 | 2.0 | 0.00 | 0.00 | 0.00 | 87 | 1014.8 |
| 20260508073505 | 43 | 80 | 2.0 | 2.0 | 0.00 | 0.00 | 0.00 | 87 | 1014.9 |
| 20260508073003 | 43 | 102 | 1.0 | 2.0 | 0.00 | 0.00 | 0.00 | 87 | 1014.8 |
| 20260508072459 | 43 | 61 | 2.0 | 2.0 | 0.00 | 0.00 | 0.00 | 87 | 1014.8 |
| 20260508071956 | 44 | 77 | 2.0 | 2.0 | 0.00 | 0.00 | 0.00 | 85 | 1014.7 |
| 20260508071454 | 43 | 82 | 2.0 | 3.0 | 0.00 | 0.00 | 0.00 | 82 | 1014.6 |
| 20260508070951 | 44 | 90 | 0.0 | 0.0 | 0.00 | 0.00 | 0.00 | 80 | 1014.6 |
| 20260508070449 | 43 | 7 | 0.0 | 0.0 | 0.00 | 0.00 | 0.00 | 81 | 1014.8 |
| 20260508065947 | 43 | 83 | 1.0 | 2.0 | 0.00 | 0.00 | 0.00 | 83 | 1014.5 |
| 20260508065445 | 43 | 81 | 2.0 | 2.0 | 0.00 | 0.00 | 0.00 | 82 | 1014.9 |
| 20260508064943 | 43 | 75 | 0.0 | 2.0 | 0.00 | 0.00 | 0.00 | 84 | 1014.9 |
| 20260508064440 | 43 | 66 | 0.0 | 2.0 | 0.00 | 0.00 | 0.00 | 84 | 1014.8 |
| 20260508063937 | 43 | 90 | 2.0 | 2.0 | 0.00 | 0.00 | 0.00 | 85 | 1014.7 |
| 20260508063435 | 44 | 84 | 1.0 | 2.0 | 0.00 | 0.00 | 0.00 | 85 | 1014.6 |
| 20260508062932 | 44 | 90 | 1.0 | 2.0 | 0.00 | 0.00 | 0.00 | 85 | 1014.5 |
| 20260508062430 | 44 | 90 | 0.0 | 2.0 | 0.00 | 0.00 | 0.00 | 83 | 1014.6 |
| 20260508061927 | 44 | 90 | 0.0 | 0.0 | 0.00 | 0.00 | 0.00 | 82 | 1014.6 |
| 20260508061424 | 44 | 90 | 0.0 | 2.0 | 0.00 | 0.00 | 0.00 | 82 | 1014.7 |
| 20260508060920 | 45 | 90 | 1.0 | 1.0 | 0.00 | 0.00 | 0.00 | 80 | 1014.5 |
| 20260508060418 | 44 | 69 | 0.0 | 0.0 | 0.00 | 0.00 | 0.00 | 80 | 1014.6 |
| 20260508055914 | 44 | 74 | 0.0 | 0.0 | 0.00 | 0.00 | 0.00 | 80 | 1014.7 |
| 20260508055411 | 44 | 74 | 0.0 | 0.0 | 0.00 | 0.00 | 0.00 | 81 | 1014.7 |
| 20260508054907 | 44 | 278 | 1.0 | 2.0 | 0.00 | 0.00 | 0.00 | 78 | 1014.9 |
| 20260508054404 | 44 | 285 | 0.0 | 1.0 | 0.00 | 0.00 | 0.00 | 76 | 1014.7 |
| 20260508053901 | 44 | 270 | 0.0 | 1.0 | 0.00 | 0.00 | 0.00 | 74 | 1015.0 |
| 20260508053358 | 43 | 270 | 0.0 | 1.0 | 0.00 | 0.00 | 0.00 | 74 | 1014.6 |
| 20260508052856 | 43 | 286 | 0.0 | 0.0 | 0.00 | 0.00 | 0.00 | 79 | 1015.0 |
| 20260508052353 | 43 | 286 | 0.0 | 0.0 | 0.00 | 0.00 | 0.00 | 80 | 1014.9 |
| 20260508051849 | 43 | 286 | 0.0 | 0.0 | 0.00 | 0.00 | 0.00 | 79 | 1014.8 |
| 20260508051345 | 43 | 286 | 0.0 | 0.0 | 0.00 | 0.00 | 0.00 | 79 | 1014.7 |
| 20260508050841 | 44 | 294 | 1.0 | 1.0 | 0.00 | 0.00 | 0.00 | 74 | 1014.8 |
| 20260508050339 | 44 | 270 | 0.0 | 1.0 | 0.00 | 0.00 | 0.00 | 75 | 1014.6 |
| 20260508045834 | 44 | 106 | 0.0 | 0.0 | 0.00 | 0.00 | 0.00 | 74 | 1015.0 |
| 20260508045332 | 44 | 106 | 0.0 | 0.0 | 0.00 | 0.00 | 0.00 | 74 | 1015.0 |
| 20260508044829 | 44 | 106 | 0.0 | 0.0 | 0.00 | 0.00 | 0.00 | 77 | 1015.2 |
| 20260508044325 | 44 | 106 | 0.0 | 0.0 | 0.00 | 0.00 | 0.00 | 74 | 1015.0 |
| 20260508043822 | 45 | 106 | 0.0 | 0.0 | 0.00 | 0.00 | 0.00 | 76 | 1014.9 |
| 20260508043319 | 45 | 106 | 0.0 | 0.0 | 0.00 | 0.00 | 0.00 | 74 | 1015.1 |
| 20260508042816 | 45 | 106 | 0.0 | 0.0 | 0.00 | 0.00 | 0.00 | 78 | 1015.1 |
| 20260508042314 | 45 | 106 | 0.0 | 0.0 | 0.00 | 0.00 | 0.00 | 77 | 1015.0 |
| 20260508041810 | 45 | 106 | 0.0 | 0.0 | 0.00 | 0.00 | 0.00 | 82 | 1015.0 |
| 20260508041307 | 45 | 82 | 0.0 | 0.0 | 0.00 | 0.00 | 0.00 | 78 | 1015.0 |
| 20260508040803 | 44 | 82 | 0.0 | 2.0 | 0.00 | 0.00 | 0.00 | 80 | 1015.1 |
| 20260508040301 | 45 | 90 | 2.0 | 2.0 | 0.00 | 0.00 | 0.00 | 80 | 1015.2 |
| 20260508035758 | 45 | 90 | 1.0 | 1.0 | 0.00 | 0.00 | 0.00 | 79 | 1014.5 |
| 20260508035255 | 46 | 90 | 0.0 | 0.0 | 0.00 | 0.00 | 0.00 | 79 | 1014.8 |
| 20260508034751 | 46 | 90 | 0.0 | 0.0 | 0.00 | 0.00 | 0.00 | 77 | 1014.5 |
| 20260508034249 | 45 | 90 | 0.0 | 0.0 | 0.00 | 0.00 | 0.00 | 73 | 1014.6 |
| 20260508033746 | 46 | 90 | 0.0 | 0.0 | 0.00 | 0.00 | 0.00 | 81 | 1014.7 |
| 20260508033244 | 46 | 90 | 0.0 | 0.0 | 0.00 | 0.00 | 0.00 | 80 | 1014.7 |
| 20260508032741 | 45 | 90 | 0.0 | 0.0 | 0.00 | 0.00 | 0.00 | 77 | 1014.9 |
| 20260508032238 | 45 | 90 | 0.0 | 0.0 | 0.00 | 0.00 | 0.00 | 77 | 1015.0 |
| 20260508031735 | 45 | 90 | 0.0 | 0.0 | 0.00 | 0.00 | 0.00 | 78 | 1014.7 |
| 20260508031231 | 46 | 90 | 0.0 | 0.0 | 0.00 | 0.00 | 0.00 | 76 | 1015.0 |
| 20260508030728 | 45 | 90 | 0.0 | 0.0 | 0.00 | 0.00 | 0.00 | 74 | 1014.8 |
| 20260508030225 | 45 | 90 | 0.0 | 0.0 | 0.00 | 0.00 | 0.00 | 71 | 1014.8 |
| 20260508025722 | 46 | 90 | 0.0 | 0.0 | 0.00 | 0.00 | 0.00 | 76 | 1014.7 |
| 20260508025219 | 45 | 90 | 0.0 | 0.0 | 0.00 | 0.00 | 0.00 | 73 | 1014.6 |
| 20260508024714 | 45 | 90 | 0.0 | 0.0 | 0.00 | 0.00 | 0.00 | 73 | 1014.9 |
| 20260508024212 | 45 | 90 | 0.0 | 0.0 | 0.00 | 0.00 | 0.00 | 74 | 1014.9 |
| 20260508023708 | 46 | 90 | 0.0 | 0.0 | 0.00 | 0.00 | 0.00 | 75 | 1014.9 |
| 20260508023206 | 46 | 90 | 0.0 | 0.0 | 0.00 | 0.00 | 0.00 | 75 | 1014.9 |
| 20260508022701 | 46 | 90 | 0.0 | 0.0 | 0.00 | 0.00 | 0.00 | 70 | 1015.0 |
| 20260508022159 | 46 | 90 | 0.0 | 0.0 | 0.00 | 0.00 | 0.00 | 63 | 1014.9 |
| 20260508021655 | 46 | 90 | 0.0 | 0.0 | 0.00 | 0.00 | 0.00 | 66 | 1014.8 |
| 20260508021150 | 46 | 90 | 0.0 | 0.0 | 0.00 | 0.00 | 0.00 | 65 | 1014.8 |
| 20260508020648 | 46 | 90 | 0.0 | 0.0 | 0.00 | 0.00 | 0.00 | 71 | 1014.8 |
| 20260508020146 | 46 | 90 | 0.0 | 0.0 | 0.00 | 0.00 | 0.00 | 66 | 1014.7 |
| 20260508015643 | 46 | 90 | 0.0 | 0.0 | 0.00 | 0.00 | 0.00 | 64 | 1014.7 |
| 20260508015140 | 46 | 90 | 0.0 | 0.0 | 0.00 | 0.00 | 0.00 | 73 | 1014.8 |
| 20260508014636 | 46 | 90 | 0.0 | 0.0 | 0.00 | 0.00 | 0.00 | 64 | 1014.9 |
| 20260508014132 | 46 | 90 | 0.0 | 0.0 | 0.00 | 0.00 | 0.00 | 69 | 1014.7 |
| 20260508013629 | 46 | 90 | 0.0 | 0.0 | 0.00 | 0.00 | 0.00 | 73 | 1014.7 |
| 20260508013126 | 47 | 90 | 0.0 | 0.0 | 0.00 | 0.00 | 0.00 | 70 | 1014.6 |
| 20260508012623 | 47 | 90 | 0.0 | 0.0 | 0.00 | 0.00 | 0.00 | 68 | 1014.5 |
| 20260508012120 | 47 | 90 | 0.0 | 0.0 | 0.00 | 0.00 | 0.00 | 64 | 1014.5 |
| 20260508011619 | 47 | 90 | 0.0 | 0.0 | 0.00 | 0.00 | 0.00 | 61 | 1014.3 |
| 20260508011115 | 47 | 90 | 0.0 | 0.0 | 0.00 | 0.00 | 0.00 | 66 | 1014.3 |
| 20260508010612 | 48 | 90 | 0.0 | 0.0 | 0.00 | 0.00 | 0.00 | 62 | 1014.0 |
| 20260508010110 | 48 | 90 | 0.0 | 0.0 | 0.00 | 0.00 | 0.00 | 63 | 1014.4 |
| 20260508005606 | 48 | 90 | 0.0 | 0.0 | 0.00 | 0.00 | 0.00 | 67 | 1014.3 |
| 20260508005103 | 48 | 90 | 0.0 | 0.0 | 0.00 | 0.00 | 0.00 | 61 | 1014.7 |
| 20260508004559 | 49 | 90 | 0.0 | 0.0 | 0.00 | 0.00 | 0.00 | 59 | 1014.0 |
| 20260508004056 | 49 | 90 | 0.0 | 0.0 | 0.00 | 0.00 | 0.00 | 64 | 1014.2 |
| 20260508003552 | 50 | 90 | 0.0 | 0.0 | 0.00 | 0.00 | 0.00 | 63 | 1014.2 |
| 20260508003050 | 50 | 90 | 0.0 | 0.0 | 0.00 | 0.00 | 0.00 | 65 | 1014.2 |
| 20260508002546 | 51 | 90 | 0.0 | 0.0 | 0.00 | 0.00 | 0.00 | 69 | 1014.0 |
| 20260508002044 | 51 | 90 | 0.0 | 1.0 | 0.00 | 0.00 | 0.00 | 61 | 1014.0 |
| 20260508001539 | 52 | 90 | 0.0 | 2.0 | 0.00 | 0.00 | 0.00 | 53 | 1013.9 |
| 20260508001035 | 53 | 105 | 0.0 | 2.0 | 0.00 | 0.00 | 0.00 | 52 | 1014.0 |
| 20260508000531 | 53 | 110 | 0.0 | 3.0 | 0.00 | 0.00 | 0.00 | 52 | 1013.9 |
| 20260508000029 | 53 | 145 | 1.0 | 3.0 | 0.00 | 0.00 | 0.00 | 48 | 1014.0 |
| 20260507235525 | 54 | 75 | 1.0 | 3.0 | 0.00 | 0.00 | 0.00 | 48 | 1013.9 |
| 20260507235023 | 54 | 111 | 0.0 | 6.0 | 0.00 | 0.00 | 0.00 | 45 | 1013.6 |
| 20260507234519 | 54 | 69 | 1.0 | 3.0 | 0.00 | 0.00 | 0.00 | 48 | 1013.7 |
| 20260507234016 | 54 | 99 | 0.0 | 2.0 | 0.00 | 0.00 | 0.00 | 48 | 1013.6 |
| 20260507233512 | 54 | 81 | 0.0 | 6.0 | 0.00 | 0.00 | 0.00 | 43 | 1013.6 |
| 20260507233012 | 55 | 90 | 0.0 | 4.0 | 0.00 | 0.00 | 0.00 | 44 | 1013.5 |
| 20260507232507 | 55 | 52 | 3.0 | 4.0 | 0.00 | 0.00 | 0.00 | 45 | 1013.5 |
| 20260507232005 | 55 | 45 | 3.0 | 4.0 | 0.00 | 0.00 | 0.00 | 44 | 1013.6 |
| 20260507231501 | 55 | 111 | 0.0 | 5.0 | 0.00 | 0.00 | 0.00 | 43 | 1013.7 |
| 20260507230958 | 55 | 140 | 0.0 | 4.0 | 0.00 | 0.00 | 0.00 | 43 | 1013.7 |
| 20260507230455 | 55 | 111 | 1.0 | 3.0 | 0.00 | 0.00 | 0.00 | 45 | 1013.7 |
| 20260507225950 | 54 | 49 | 3.0 | 3.0 | 0.00 | 0.00 | 0.00 | 46 | 1013.7 |
| 20260507225446 | 54 | 112 | 2.0 | 2.0 | 0.00 | 0.00 | 0.00 | 46 | 1013.8 |
| 20260507224943 | 54 | 59 | 3.0 | 3.0 | 0.00 | 0.00 | 0.00 | 47 | 1013.7 |
| 20260507224439 | 54 | 61 | 3.0 | 5.0 | 0.00 | 0.00 | 0.00 | 43 | 1014.0 |
| 20260507223936 | 55 | 45 | 4.0 | 4.0 | 0.00 | 0.00 | 0.00 | 44 | 1013.7 |
| 20260507223432 | 55 | 54 | 3.0 | 5.0 | 0.00 | 0.00 | 0.00 | 44 | 1013.8 |
| 20260507222929 | 56 | 117 | 0.0 | 7.0 | 0.00 | 0.00 | 0.00 | 46 | 1013.7 |
| 20260507222426 | 55 | 140 | 2.0 | 3.0 | 0.00 | 0.00 | 0.00 | 45 | 1013.9 |
| 20260507221922 | 55 | 45 | 3.0 | 6.0 | 0.00 | 0.00 | 0.00 | 44 | 1014.0 |
| 20260507221419 | 56 | 90 | 2.0 | 9.0 | 0.00 | 0.00 | 0.00 | 43 | 1014.0 |
| 20260507220915 | 58 | 19 | 2.0 | 5.0 | 0.00 | 0.00 | 0.00 | 43 | 1013.7 |
| 20260507220413 | 57 | 9 | 2.0 | 7.0 | 0.00 | 0.00 | 0.00 | 44 | 1013.6 |
| 20260507215909 | 58 | 80 | 2.0 | 4.0 | 0.00 | 0.00 | 0.00 | 45 | 1013.6 |
| 20260507215406 | 57 | 46 | 4.0 | 6.0 | 0.00 | 0.00 | 0.00 | 42 | 1013.4 |
| 20260507214903 | 59 | 69 | 5.0 | 8.0 | 0.00 | 0.00 | 0.00 | 42 | 1013.4 |
| 20260507214401 | 59 | 74 | 3.0 | 5.0 | 0.00 | 0.00 | 0.00 | 41 | 1013.4 |
| 20260507213856 | 59 | 90 | 2.0 | 6.0 | 0.00 | 0.00 | 0.00 | 43 | 1013.6 |
| 20260507213353 | 58 | 45 | 3.0 | 6.0 | 0.00 | 0.00 | 0.00 | 44 | 1013.2 |
| 20260507212850 | 60 | 100 | 3.0 | 8.0 | 0.00 | 0.00 | 0.00 | 41 | 1013.0 |
| 20260507212346 | 59 | 78 | 5.0 | 11.0 | 0.00 | 0.00 | 0.00 | 42 | 1013.0 |
| 20260507211842 | 60 | 90 | 2.0 | 5.0 | 0.00 | 0.00 | 0.00 | 44 | 1013.0 |
| 20260507211339 | 58 | 139 | 5.0 | 11.0 | 0.00 | 0.00 | 0.00 | 42 | 1012.8 |
| 20260507210836 | 59 | 45 | 3.0 | 9.0 | 0.00 | 0.00 | 0.00 | 44 | 1012.7 |
| 20260507210333 | 58 | 94 | 2.0 | 5.0 | 0.00 | 0.00 | 0.00 | 47 | 1012.7 |
| 20260507205829 | 57 | 95 | 2.0 | 6.0 | 0.00 | 0.00 | 0.00 | 46 | 1012.8 |
| 20260507205327 | 59 | 79 | 6.0 | 9.0 | 0.00 | 0.00 | 0.00 | 43 | 1012.6 |
| 20260507204822 | 59 | 47 | 3.0 | 8.0 | 0.00 | 0.00 | 0.00 | 46 | 1012.7 |
| 20260507204320 | 60 | 139 | 9.0 | 9.0 | 0.00 | 0.00 | 0.00 | 41 | 1012.7 |
| 20260507203818 | 61 | 357 | 3.0 | 7.0 | 0.00 | 0.00 | 0.00 | 42 | 1012.8 |
| 20260507203315 | 59 | 119 | 3.0 | 10.0 | 0.00 | 0.00 | 0.00 | 44 | 1012.8 |
| 20260507202811 | 59 | 147 | 4.0 | 7.0 | 0.00 | 0.00 | 0.00 | 42 | 1012.8 |
| 20260507202308 | 59 | 0 | 4.0 | 6.0 | 0.00 | 0.00 | 0.00 | 44 | 1012.6 |
| 20260507201803 | 59 | 79 | 4.0 | 7.0 | 0.00 | 0.00 | 0.00 | 43 | 1012.5 |
| 20260507201259 | 58 | 148 | 0.0 | 10.0 | 0.00 | 0.00 | 0.00 | 42 | 1012.5 |
| 20260507200756 | 56 | 42 | 3.0 | 7.0 | 0.00 | 0.00 | 0.00 | 44 | 1012.6 |
| 20260507200252 | 58 | 123 | 2.0 | 12.0 | 0.00 | 0.00 | 0.00 | 45 | 1012.6 |
| 20260507195748 | 58 | 43 | 5.0 | 10.0 | 0.00 | 0.00 | 0.00 | 39 | 1012.8 |
| 20260507195245 | 58 | 0 | 2.0 | 8.0 | 0.00 | 0.00 | 0.00 | 39 | 1012.7 |
| 20260507194743 | 58 | 90 | 0.0 | 12.0 | 0.00 | 0.00 | 0.00 | 40 | 1012.8 |
| 20260507194238 | 59 | 97 | 3.0 | 5.0 | 0.00 | 0.00 | 0.00 | 39 | 1012.8 |
| 20260507193735 | 59 | 75 | 6.0 | 9.0 | 0.00 | 0.00 | 0.00 | 40 | 1012.8 |
| 20260507193232 | 59 | 6 | 3.0 | 7.0 | 0.00 | 0.00 | 0.00 | 37 | 1012.6 |
| 20260507192728 | 59 | 109 | 5.0 | 9.0 | 0.00 | 0.00 | 0.00 | 41 | 1012.7 |
| 20260507192225 | 58 | 6 | 3.0 | 5.0 | 0.00 | 0.00 | 0.00 | 40 | 1012.7 |
| 20260507191721 | 58 | 101 | 3.0 | 4.0 | 0.00 | 0.00 | 0.00 | 42 | 1013.0 |
| 20260507191218 | 58 | 145 | 1.0 | 9.0 | 0.00 | 0.00 | 0.00 | 43 | 1012.9 |
| 20260507190715 | 59 | 129 | 4.0 | 4.0 | 0.00 | 0.00 | 0.00 | 44 | 1013.0 |
| 20260507190214 | 59 | 78 | 3.0 | 8.0 | 0.00 | 0.00 | 0.00 | 41 | 1013.0 |
| 20260507185712 | 57 | 24 | 2.0 | 11.0 | 0.00 | 0.00 | 0.00 | 44 | 1013.0 |
| 20260507185208 | 57 | 50 | 6.0 | 8.0 | 0.00 | 0.00 | 0.00 | 43 | 1012.9 |
| 20260507184706 | 60 | 105 | 2.0 | 5.0 | 0.00 | 0.00 | 0.00 | 47 | 1012.9 |
| 20260507184204 | 59 | 100 | 2.0 | 5.0 | 0.00 | 0.00 | 0.00 | 45 | 1013.0 |
| 20260507183700 | 58 | 74 | 4.0 | 4.0 | 0.00 | 0.00 | 0.00 | 46 | 1012.8 |
| 20260507183157 | 57 | 106 | 3.0 | 5.0 | 0.00 | 0.00 | 0.00 | 45 | 1013.1 |
| 20260507182654 | 59 | 90 | 2.0 | 6.0 | 0.00 | 0.00 | 0.00 | 40 | 1013.1 |
| 20260507182149 | 60 | 86 | 3.0 | 4.0 | 0.00 | 0.00 | 0.00 | 43 | 1012.9 |
| 20260507181646 | 60 | 90 | 1.0 | 5.0 | 0.00 | 0.00 | 0.00 | 41 | 1012.9 |
| 20260507181143 | 60 | 93 | 4.0 | 4.0 | 0.00 | 0.00 | 0.00 | 42 | 1013.0 |
| 20260507180639 | 60 | 86 | 2.0 | 8.0 | 0.00 | 0.00 | 0.00 | 46 | 1013.0 |
| 20260507180136 | 60 | 77 | 5.0 | 6.0 | 0.00 | 0.00 | 0.00 | 42 | 1013.1 |
| 20260507175632 | 59 | 10 | 2.0 | 9.0 | 0.00 | 0.00 | 0.00 | 47 | 1013.2 |
| 20260507175129 | 57 | 145 | 4.0 | 10.0 | 0.00 | 0.00 | 0.00 | 42 | 1013.5 |
| 20260507174626 | 59 | 83 | 4.0 | 4.0 | 0.00 | 0.00 | 0.00 | 45 | 1013.5 |
| 20260507174124 | 59 | 78 | 4.0 | 5.0 | 0.00 | 0.00 | 0.00 | 44 | 1013.1 |
| 20260507173621 | 58 | 90 | 3.0 | 5.0 | 0.00 | 0.00 | 0.00 | 44 | 1013.2 |
| 20260507173118 | 57 | 124 | 2.0 | 6.0 | 0.00 | 0.00 | 0.00 | 47 | 1013.6 |
| 20260507172614 | 57 | 67 | 6.0 | 8.0 | 0.00 | 0.00 | 0.00 | 42 | 1013.6 |
| 20260507172112 | 57 | 73 | 3.0 | 6.0 | 0.00 | 0.00 | 0.00 | 47 | 1013.5 |
| 20260507171606 | 59 | 18 | 1.0 | 6.0 | 0.00 | 0.00 | 0.00 | 49 | 1013.6 |
| 20260507171104 | 57 | 85 | 2.0 | 11.0 | 0.00 | 0.00 | 0.00 | 41 | 1013.7 |
| 20260507170601 | 60 | 101 | 5.0 | 7.0 | 0.00 | 0.00 | 0.00 | 41 | 1013.5 |
| 20260507170058 | 59 | 10 | 3.0 | 4.0 | 0.00 | 0.00 | 0.00 | 43 | 1013.5 |
| 20260507165553 | 59 | 82 | 1.0 | 5.0 | 0.00 | 0.00 | 0.00 | 43 | 1013.9 |
| 20260507165050 | 58 | 148 | 2.0 | 8.0 | 0.00 | 0.00 | 0.00 | 47 | 1013.9 |
| 20260507164547 | 58 | 49 | 0.0 | 5.0 | 0.00 | 0.00 | 0.00 | 42 | 1013.9 |
| 20260507164043 | 57 | 36 | 3.0 | 7.0 | 0.00 | 0.00 | 0.00 | 43 | 1014.0 |
| 20260507163540 | 57 | 77 | 1.0 | 3.0 | 0.00 | 0.00 | 0.00 | 42 | 1013.7 |
| 20260507163033 | 57 | 45 | 3.0 | 7.0 | 0.00 | 0.00 | 0.00 | 41 | 1013.8 |
| 20260507162533 | 57 | 45 | 4.0 | 5.0 | 0.00 | 0.00 | 0.00 | 45 | 1014.0 |
| 20260507162030 | 57 | 97 | 3.0 | 7.0 | 0.00 | 0.00 | 0.00 | 42 | 1013.7 |
| 20260507161526 | 56 | 90 | 3.0 | 10.0 | 0.00 | 0.00 | 0.00 | 44 | 1013.9 |
| 20260507161023 | 57 | 58 | 3.0 | 6.0 | 0.00 | 0.00 | 0.00 | 44 | 1013.8 |
| 20260507160519 | 56 | 96 | 5.0 | 8.0 | 0.00 | 0.00 | 0.00 | 47 | 1013.8 |
| 20260507160016 | 57 | 90 | 0.0 | 5.0 | 0.00 | 0.00 | 0.00 | 48 | 1013.7 |
| 20260507155511 | 55 | 74 | 7.0 | 9.0 | 0.00 | 0.00 | 0.00 | 44 | 1013.7 |
| 20260507155009 | 55 | 100 | 3.0 | 9.0 | 0.00 | 0.00 | 0.00 | 43 | 1013.9 |
| 20260507154505 | 55 | 128 | 2.0 | 7.0 | 0.00 | 0.00 | 0.00 | 45 | 1013.8 |
| 20260507154002 | 56 | 64 | 4.0 | 5.0 | 0.00 | 0.00 | 0.00 | 43 | 1013.8 |
| 20260507153459 | 56 | 80 | 4.0 | 7.0 | 0.00 | 0.00 | 0.00 | 47 | 1013.9 |
| 20260507152955 | 55 | 43 | 6.0 | 7.0 | 0.00 | 0.00 | 0.00 | 45 | 1013.9 |
| 20260507152451 | 55 | 82 | 0.0 | 7.0 | 0.00 | 0.00 | 0.00 | 45 | 1014.0 |
| 20260507151947 | 55 | 94 | 4.0 | 6.0 | 0.00 | 0.00 | 0.00 | 44 | 1014.0 |
| 20260507151444 | 55 | 52 | 3.0 | 6.0 | 0.00 | 0.00 | 0.00 | 44 | 1014.0 |
| 20260507150941 | 56 | 108 | 2.0 | 5.0 | 0.00 | 0.00 | 0.00 | 45 | 1013.8 |
| 20260507150438 | 55 | 132 | 4.0 | 5.0 | 0.00 | 0.00 | 0.00 | 51 | 1014.0 |
| 20260507145934 | 55 | 59 | 4.0 | 4.0 | 0.00 | 0.00 | 0.00 | 47 | 1014.0 |
| 20260507145430 | 55 | 105 | 0.0 | 5.0 | 0.00 | 0.00 | 0.00 | 48 | 1014.2 |
| 20260507144927 | 55 | 94 | 3.0 | 4.0 | 0.00 | 0.00 | 0.00 | 48 | 1014.0 |
| 20260507144424 | 55 | 105 | 1.0 | 3.0 | 0.00 | 0.00 | 0.00 | 51 | 1014.3 |
| 20260507143921 | 55 | 57 | 3.0 | 4.0 | 0.00 | 0.00 | 0.00 | 49 | 1014.1 |
| 20260507143418 | 53 | 103 | 2.0 | 5.0 | 0.00 | 0.00 | 0.00 | 52 | 1014.3 |
| 20260507142915 | 54 | 93 | 4.0 | 6.0 | 0.00 | 0.00 | 0.00 | 55 | 1014.2 |
| 20260507142410 | 55 | 339 | 2.0 | 5.0 | 0.00 | 0.00 | 0.00 | 51 | 1014.0 |
| 20260507141908 | 55 | 100 | 3.0 | 5.0 | 0.00 | 0.00 | 0.00 | 52 | 1014.3 |
| 20260507141404 | 54 | 90 | 1.0 | 3.0 | 0.00 | 0.00 | 0.00 | 57 | 1014.4 |
| 20260507140901 | 53 | 77 | 3.0 | 4.0 | 0.00 | 0.00 | 0.00 | 58 | 1014.5 |
| 20260507140357 | 53 | 45 | 3.0 | 6.0 | 0.00 | 0.00 | 0.00 | 56 | 1014.4 |
| 20260507135855 | 53 | 28 | 5.0 | 6.0 | 0.00 | 0.00 | 0.00 | 57 | 1014.6 |
| 20260507135352 | 55 | 120 | 0.0 | 2.0 | 0.00 | 0.00 | 0.00 | 67 | 1014.7 |
| 20260507134850 | 52 | 120 | 2.0 | 3.0 | 0.00 | 0.00 | 0.00 | 69 | 1014.7 |
| 20260507134345 | 51 | 60 | 1.0 | 4.0 | 0.00 | 0.00 | 0.00 | 71 | 1014.7 |
| 20260507133841 | 52 | 82 | 1.0 | 3.0 | 0.00 | 0.00 | 0.00 | 71 | 1014.6 |
| 20260507133337 | 51 | 90 | 0.0 | 4.0 | 0.00 | 0.00 | 0.00 | 72 | 1014.9 |
| 20260507132836 | 50 | 65 | 2.0 | 3.0 | 0.00 | 0.00 | 0.00 | 73 | 1014.9 |
| 20260507132332 | 51 | 106 | 0.0 | 3.0 | 0.00 | 0.00 | 0.00 | 76 | 1014.8 |
| 20260507131829 | 49 | 96 | 1.0 | 4.0 | 0.00 | 0.00 | 0.00 | 76 | 1014.7 |
| 20260507131325 | 50 | 8 | 0.0 | 2.0 | 0.00 | 0.00 | 0.00 | 77 | 1015.0 |
| 20260507130822 | 48 | 53 | 2.0 | 3.0 | 0.00 | 0.00 | 0.00 | 79 | 1014.8 |
| 20260507130320 | 48 | 90 | 0.0 | 2.0 | 0.00 | 0.00 | 0.00 | 81 | 1014.8 |
| 20260507125819 | 46 | 115 | 2.0 | 3.0 | 0.00 | 0.00 | 0.00 | 84 | 1014.7 |
| 20260507125315 | 45 | 15 | 0.0 | 3.0 | 0.00 | 0.00 | 0.00 | 89 | 1014.8 |
| 20260507124813 | 44 | 45 | 2.0 | 2.0 | 0.00 | 0.00 | 0.00 | 91 | 1014.5 |
| 20260507124309 | 43 | 84 | 1.0 | 2.0 | 0.00 | 0.00 | 0.00 | 92 | 1014.9 |
| 20260507123808 | 42 | 111 | 1.0 | 2.0 | 0.00 | 0.00 | 0.00 | 94 | 1014.8 |
| 20260507123305 | 42 | 98 | 1.0 | 3.0 | 0.00 | 0.00 | 0.00 | 95 | 1014.7 |
| 20260507122801 | 41 | 106 | 0.0 | 2.0 | 0.00 | 0.00 | 0.00 | 96 | 1015.0 |
| 20260507122256 | 41 | 97 | 1.0 | 2.0 | 0.00 | 0.00 | 0.00 | 97 | 1014.9 |
| 20260507121752 | 41 | 98 | 1.0 | 1.0 | 0.00 | 0.00 | 0.00 | 97 | 1014.8 |
| 20260507121248 | 40 | 71 | 1.0 | 2.0 | 0.00 | 0.00 | 0.00 | 97 | 1014.9 |
| 20260507120744 | 40 | 106 | 0.0 | 1.0 | 0.00 | 0.00 | 0.00 | 98 | 1014.6 |
| 20260507120241 | 40 | 105 | 1.0 | 2.0 | 0.00 | 0.00 | 0.00 | 97 | 1014.8 |
| 20260507115737 | 40 | 105 | 0.0 | 2.0 | 0.00 | 0.00 | 0.00 | 97 | 1014.8 |
| 20260507115233 | 39 | 96 | 2.0 | 2.0 | 0.00 | 0.00 | 0.00 | 97 | 1014.8 |
| 20260507114729 | 39 | 90 | 1.0 | 2.0 | 0.00 | 0.00 | 0.00 | 97 | 1014.6 |
| 20260507114227 | 39 | 105 | 0.0 | 1.0 | 0.00 | 0.00 | 0.00 | 97 | 1014.7 |
| 20260507113724 | 39 | 90 | 0.0 | 0.0 | 0.00 | 0.00 | 0.00 | 97 | 1014.7 |
| 20260507113221 | 39 | 97 | 0.0 | 1.0 | 0.00 | 0.00 | 0.00 | 97 | 1014.7 |
| 20260507112718 | 39 | 77 | 0.0 | 1.0 | 0.00 | 0.00 | 0.00 | 97 | 1014.6 |
| 20260507112215 | 38 | 98 | 0.0 | 1.0 | 0.00 | 0.00 | 0.00 | 97 | 1014.6 |
| 20260507111713 | 38 | 114 | 0.0 | 1.0 | 0.00 | 0.00 | 0.00 | 97 | 1014.5 |
| 20260507111210 | 38 | 90 | 0.0 | 0.0 | 0.00 | 0.00 | 0.00 | 97 | 1014.5 |
| 20260507110705 | 38 | 90 | 1.0 | 1.0 | 0.00 | 0.00 | 0.00 | 97 | 1014.4 |
| 20260507110202 | 39 | 90 | 0.0 | 2.0 | 0.00 | 0.00 | 0.00 | 97 | 1014.5 |
| 20260507105659 | 39 | 83 | 1.0 | 1.0 | 0.00 | 0.00 | 0.00 | 96 | 1014.5 |
| 20260507105155 | 38 | 98 | 1.0 | 1.0 | 0.00 | 0.00 | 0.00 | 96 | 1014.3 |
| 20260507104653 | 39 | 90 | 0.0 | 1.0 | 0.00 | 0.00 | 0.00 | 96 | 1014.4 |
| 20260507104149 | 39 | 82 | 0.0 | 1.0 | 0.00 | 0.00 | 0.00 | 96 | 1014.3 |
| 20260507103645 | 39 | 90 | 0.0 | 0.0 | 0.00 | 0.00 | 0.00 | 96 | 1014.4 |
| 20260507103142 | 39 | 90 | 1.0 | 1.0 | 0.00 | 0.00 | 0.00 | 96 | 1014.1 |
| 20260507102638 | 39 | 106 | 0.0 | 1.0 | 0.00 | 0.00 | 0.00 | 96 | 1014.6 |
| 20260507102134 | 39 | 90 | 0.0 | 1.0 | 0.00 | 0.00 | 0.00 | 96 | 1014.3 |
| 20260507101630 | 39 | 114 | 0.0 | 1.0 | 0.00 | 0.00 | 0.00 | 96 | 1014.2 |
| 20260507101126 | 39 | 75 | 0.0 | 0.0 | 0.00 | 0.00 | 0.00 | 96 | 1014.5 |
| 20260507100624 | 39 | 97 | 0.0 | 2.0 | 0.00 | 0.00 | 0.00 | 96 | 1014.3 |
| 20260507100122 | 40 | 66 | 0.0 | 1.0 | 0.00 | 0.00 | 0.00 | 96 | 1014.0 |
| 20260507095620 | 39 | 82 | 0.0 | 1.0 | 0.00 | 0.00 | 0.00 | 96 | 1014.1 |
| 20260507095116 | 40 | 90 | 1.0 | 1.0 | 0.00 | 0.00 | 0.00 | 96 | 1014.2 |
| 20260507094612 | 40 | 90 | 0.0 | 1.0 | 0.00 | 0.00 | 0.00 | 95 | 1014.0 |
| 20260507094109 | 40 | 74 | 0.0 | 1.0 | 0.00 | 0.00 | 0.00 | 96 | 1014.2 |
| 20260507093606 | 40 | 90 | 0.0 | 0.0 | 0.00 | 0.00 | 0.00 | 96 | 1014.0 |
| 20260507093105 | 40 | 90 | 0.0 | 0.0 | 0.00 | 0.00 | 0.00 | 96 | 1014.1 |
| 20260507092601 | 40 | 90 | 0.0 | 1.0 | 0.00 | 0.00 | 0.00 | 96 | 1014.2 |
| 20260507092058 | 40 | 111 | 0.0 | 0.0 | 0.00 | 0.00 | 0.00 | 95 | 1014.3 |
| 20260507091555 | 40 | 111 | 0.0 | 0.0 | 0.00 | 0.00 | 0.00 | 95 | 1014.1 |
| 20260507091051 | 40 | 111 | 0.0 | 0.0 | 0.00 | 0.00 | 0.00 | 95 | 1013.9 |
| 20260507090547 | 40 | 90 | 0.0 | 0.0 | 0.00 | 0.00 | 0.00 | 94 | 1014.2 |
| 20260507090044 | 40 | 90 | 0.0 | 1.0 | 0.00 | 0.00 | 0.00 | 94 | 1014.4 |
| 20260507085541 | 40 | 75 | 0.0 | 1.0 | 0.00 | 0.00 | 0.00 | 94 | 1014.2 |